Location: Unspecified
(40.7945°N, 0.0000°E)
Time: 03:36:48
(UTC+00:00)

Altair - Pass Details

Date: 29 January 2021
Orbit: 1501 x 1682 km, 47.2° (Epoch: 01 March)

Event Time Altitude Azimuth Distance (km) Brightness Sun altitude
Rises 07:01:27 0° 281° (WNW) 4,896 - -2.8°
Exits shadow 07:02:15 - 282° (WNW) 4,651 9.3 -2.7°
Reaches altitude 10° 07:04:40 10° 285° (WNW) 3,924 9.0 -2.3°
Maximum altitude 07:14:41 62° 6° (N) 1,863 7.9 -0.5°
Drops below altitude 10° 07:24:44 10° 86° (E) 3,929 10.9 1.2°
Sets 07:27:57 0° 90° (E) 4,904 11.5 1.8°
